[[{"header":{"parameterUnit":"m.s-1","parameterCategory":1,"la1":30.2991,"la2":30.254,"lo1":-89.0895,"lo2":-89.0444,"dy":0.0017,"dx":0.0017,"nx":28,"ny":28,"refTime":"2025-03-23T09:00:00:Z","depth":0,"parameterNumber":2,"parameterNumberName":"U-component_of_WINDS"},"data":[0,0,0,0,0,0,0,0,0,0,0,0,0,0,0,0,0,0,0,0,0,0,0,0,0,0,0,0,0,0,0,0,0,0,0,0,0,0,0,0,0,0,0,0,0,0,0,0,0,0,0,0,0,0,0,0,0,0,-0.6344,-0.6343,0,-0.6324,-0.6324,-0.6324,-0.6339,-0.634,-0.6341,-0.6341,-0.632,-0.6319,-0.6318,0,0,0,0,0,0,0,0,0,0,0,0,0,-0.6393,-0.6392,-0.6344,-0.6343,-0.6343,-0.6324,-0.6324,-0.6324,-0.6339,-0.634,-0.6341,-0.6342,-0.632,-0.6319,-0.6318,0,0,0,0,0,0,0,0,0,0,0,0,0,-0.6372,-0.6392,-0.6344,-0.6349,-0.6349,-0.6325,-0.6324,-0.6324,-0.6339,-0.634,-0.6341,-0.6342,-0.6321,-0.6319,-0.6317,-0.6287,0,0,-0.6312,-0.6311,0,0,0,0,0,0,0,0,-0.6373,-0.637,-0.6348,-0.6348,-0.6348,-0.6335,-0.6334,-0.6311,-0.6339,-0.6343,-0.6341,-0.6342,-0.6324,-0.6322,-0.6316,-0.6286,-0.6285,-0.6312,-0.6311,-0.631,-0.631,0,0,0,0,0,0,0,-0.6375,-0.6371,-0.6336,-0.6348,-0.6348,-0.6351,-0.635,-0.633,-0.6328,-0.6342,-0.6343,-0.6341,-0.6324,-0.6318,-0.6316,-0.6285,-0.6312,-0.631,-0.6309,-0.6309,-0.6228,-0.6227,0,0,0,0,0,0,-0.6376,-0.6372,-0.6337,-0.6335,-0.6364,-0.635,-0.6348,-0.6338,-0.6328,-0.6328,-0.634,-0.6342,-0.6321,-0.6318,-0.6315,-0.6278,-0.631,-0.6308,-0.6307,-0.6229,-0.6228,-0.6227,0,0,0,0,0,0,-0.6377,-0.6373,-0.6337,-0.6354,-0.635,-0.6348,-0.6337,-0.6338,-0.6331,-0.6327,-0.6326,-0.6334,-0.6321,-0.6318,-0.6294,-0.6278,-0.6308,-0.6306,-0.623,-0.6229,-0.6227,-0.6204,0,0,0,0,0,0,-0.6378,-0.6373,-0.6361,-0.6354,-0.6349,-0.6316,-0.6336,-0.6337,-0.6328,-0.633,-0.6321,-0.632,-0.6322,-0.6296,-0.6292,-0.6276,-0.6305,-0.6232,-0.623,-0.6228,-0.6206,-0.6202,-0.6198,0,0,0,0,0,-0.638,-0.6355,-0.6361,-0.6356,-0.6335,-0.6315,-0.6313,-0.6315,-0.6327,-0.6315,-0.6312,-0.632,-0.6281,-0.6294,-0.6289,-0.6272,-0.6233,-0.623,-0.6228,-0.6208,-0.6203,-0.6198,0,0,0,0,0,0,-0.636,-0.6354,-0.636,-0.6332,-0.6324,-0.6318,-0.6303,-0.631,-0.6298,-0.63,-0.6304,-0.6301,-0.6276,-0.6272,-0.6287,-0.6242,-0.6258,-0.6255,-0.6245,-0.624,-0.6236,-0.6236,-0.6303,0,0,0,0,0,-0.6352,-0.6338,-0.6334,-0.6309,-0.6305,-0.6305,-0.6297,-0.63,-0.6291,-0.6288,-0.6283,-0.6274,-0.626,-0.625,-0.6237,-0.6207,-0.6204,-0.6193,-0.6188,-0.6185,-0.6181,-0.6165,-0.6159,-0.6218,-0.6219,-0.6219,0,0,-0.6336,-0.6331,-0.6322,-0.6305,-0.6299,-0.6283,-0.6302,-0.6284,-0.6272,-0.6285,-0.6261,-0.6258,-0.6249,-0.6221,-0.6209,-0.6217,-0.6165,-0.6182,-0.6179,-0.6177,-0.6161,-0.6156,-0.6151,-0.6217,-0.6217,-0.6217,0,0,-0.6298,-0.6294,-0.6273,-0.6267,-0.6258,-0.6258,-0.6253,-0.6246,-0.6245,-0.6222,-0.6231,-0.6217,-0.6192,-0.6185,-0.6178,-0.6139,-0.6145,-0.6135,-0.6112,-0.6096,-0.6091,-0.6087,-0.6072,-0.6067,-0.6131,-0.6131,-0.6131,0,-0.6279,-0.6256,-0.6261,-0.6243,-0.6235,-0.6247,-0.6226,-0.622,-0.6207,-0.6201,-0.6211,-0.618,-0.6174,-0.6145,-0.6136,-0.613,-0.6124,-0.6134,-0.6092,-0.6088,-0.6084,-0.6069,-0.6064,-0.613,-0.613,-0.613,-0.613,0,-0.6232,-0.6216,-0.62,-0.6188,-0.6179,-0.6159,-0.6161,-0.6151,-0.6155,-0.6155,-0.6131,-0.6125,-0.6111,-0.6105,-0.6108,-0.6076,-0.6081,-0.6091,-0.6108,-0.6077,-0.6063,-0.6057,-0.6128,-0.6128,-0.6129,-0.6129,0,0,-0.6179,-0.6171,-0.6165,-0.6159,-0.6151,-0.6138,-0.612,-0.6106,-0.6097,-0.6088,-0.6071,-0.6051,-0.6061,-0.6053,-0.6056,-0.6042,-0.601,-0.6054,-0.6054,-0.6045,-0.5973,-0.5964,-0.5957,-0.6016,-0.6015,-0.6014,-0.5973,0,-0.6139,-0.6106,-0.6111,-0.6079,-0.6064,-0.6076,-0.6059,-0.6052,-0.6052,-0.6039,-0.6038,-0.6022,-0.6037,-0.6032,-0.6019,-0.6017,-0.5996,-0.602,-0.5999,-0.5998,-0.5999,-0.595,-0.594,-0.5902,-0.5968,-0.5967,-0.5967,0,-0.6088,-0.6078,-0.6044,-0.6039,-0.6033,-0.6018,-0.6006,-0.5993,-0.5986,-0.5987,-0.5978,-0.5985,-0.5966,-0.5984,-0.5957,-0.5974,-0.5966,-0.5964,-0.5963,-0.5959,-0.5979,-0.5943,-0.589,-0.5883,-0.5958,-0.5959,-0.596,0,-0.605,-0.6029,-0.6006,-0.6001,-0.5994,-0.5983,-0.598,-0.5974,-0.5965,-0.5955,-0.595,-0.5937,-0.593,-0.592,-0.5923,-0.5936,-0.5895,-0.5914,-0.5894,-0.5893,-0.5882,-0.5882,-0.5825,-0.5881,-0.5881,-0.5881,-0.5881,0,-0.6004,-0.5983,-0.5989,-0.5974,-0.5951,-0.5957,-0.5934,-0.5932,-0.5926,-0.5912,-0.5922,-0.5908,-0.5914,-0.59,-0.5902,-0.5879,-0.5876,-0.5875,-0.5875,-0.5873,-0.5873,-0.5866,-0.5868,-0.588,-0.588,-0.588,-0.588,0,-0.5957,-0.596,-0.5936,-0.5932,-0.5931,-0.5913,-0.591,-0.5897,-0.5898,-0.5879,-0.5875,-0.5876,-0.586,-0.5863,-0.5846,-0.5847,-0.5818,-0.5822,-0.582,-0.582,-0.5799,-0.58,-0.5733,-0.5724,-0.5788,-0.5787,-0.5787,0,-0.5926,-0.591,-0.5905,-0.5896,-0.5892,-0.5878,-0.587,-0.5876,-0.5867,-0.5858,-0.5845,-0.5831,-0.5819,-0.5794,-0.5793,-0.578,-0.5783,-0.5761,-0.5781,-0.5779,-0.578,-0.578,-0.5778,-0.5755,-0.5755,-0.5754,-0.5754,0,-0.5871,-0.5874,-0.5861,-0.585,-0.584,-0.5831,-0.5823,-0.5815,-0.5821,-0.581,-0.5795,-0.5786,-0.5769,-0.5754,-0.5742,-0.5738,-0.5746,-0.5748,-0.5742,-0.5738,-0.5736,-0.5735,-0.5806,-0.5749,-0.5749,-0.5749,-0.575,-0.575,-0.583,-0.5816,-0.581,-0.5796,-0.5791,-0.5784,-0.5771,-0.5771,-0.5758,-0.5744,-0.575,-0.5731,-0.5725,-0.571,-0.5705,-0.5691,-0.5699,-0.5691,-0.5689,-0.5686,-0.5683,-0.5741,-0.5689,-0.5689,-0.569,-0.569,-0.569,0,-0.5773,-0.577,-0.5758,-0.5747,-0.5736,-0.5747,-0.5739,-0.5728,-0.5713,-0.5706,-0.5695,-0.5677,-0.5664,-0.5662,-0.5649,-0.5638,-0.5641,-0.5634,-0.5633,-0.5632,-0.5677,-0.5683,-0.5631,-0.5631,-0.5631,-0.5631,-0.5631,-0.5631,-0.5742,-0.5719,-0.5721,-0.5696,-0.5693,-0.5676,-0.567,-0.5664,-0.5659,-0.5638,-0.5627,-0.5627,-0.5622,-0.5609,-0.5597,-0.5597,-0.559,-0.5581,-0.5582,-0.5623,-0.5629,-0.5635,-0.564,-0.558,-0.558,-0.5538,-0.5538,-0.5537]},{"header":{"parameterUnit":"m.s-1","parameterCategory":1,"la1":30.2991,"la2":30.254,"lo1":-89.0895,"lo2":-89.0444,"dy":0.0017,"dx":0.0017,"nx":28,"ny":28,"refTime":"2025-03-23T09:00:00:Z","depth":0,"parameterNumber":3,"parameterNumberName":"V-component_of_WINDS"},"data":[0,0,0,0,0,0,0,0,0,0,0,0,0,0,0,0,0,0,0,0,0,0,0,0,0,0,0,0,0,0,0,0,0,0,0,0,0,0,0,0,0,0,0,0,0,0,0,0,0,0,0,0,0,0,0,0,0,0,1.0299,1.0299,0,1.0294,1.0294,1.0294,1.0255,1.0254,1.0253,1.0252,1.0247,1.0247,1.0248,0,0,0,0,0,0,0,0,0,0,0,0,0,1.0274,1.0274,1.0299,1.0299,1.0299,1.0294,1.0294,1.0294,1.0255,1.0254,1.0253,1.0251,1.0246,1.0247,1.0248,0,0,0,0,0,0,0,0,0,0,0,0,0,1.0278,1.0274,1.0299,1.0279,1.0277,1.0294,1.0294,1.0294,1.0255,1.0254,1.0252,1.0251,1.0246,1.0247,1.0248,1.0285,0,0,1.0252,1.0252,0,0,0,0,0,0,0,0,1.0278,1.0279,1.0282,1.028,1.0278,1.0274,1.0283,1.0291,1.0256,1.0263,1.0252,1.025,1.0257,1.0257,1.0259,1.0285,1.0284,1.0252,1.0253,1.0253,1.0254,0,0,0,0,0,0,0,1.0278,1.0279,1.0297,1.0282,1.028,1.027,1.0269,1.0285,1.0268,1.0263,1.026,1.026,1.0255,1.0258,1.0259,1.0284,1.0252,1.0253,1.0254,1.0254,1.034,1.0342,0,0,0,0,0,0,1.028,1.0279,1.0297,1.0297,1.0275,1.0271,1.027,1.0277,1.0268,1.0265,1.0261,1.0258,1.0257,1.0258,1.0259,1.0302,1.0253,1.0254,1.0255,1.0339,1.0341,1.0342,0,0,0,0,0,0,1.028,1.0282,1.0298,1.0287,1.0289,1.0273,1.0281,1.0277,1.028,1.0267,1.0264,1.0267,1.0256,1.0257,1.0279,1.0301,1.0255,1.0256,1.0337,1.0339,1.0342,1.0388,0,0,0,0,0,0,1.0279,1.0282,1.0296,1.0288,1.0289,1.0318,1.0282,1.0278,1.0282,1.0278,1.0272,1.0269,1.0255,1.0277,1.028,1.0302,1.0257,1.0335,1.0338,1.0341,1.0384,1.0391,1.0397,0,0,0,0,0,1.0279,1.0309,1.0297,1.03,1.0306,1.0319,1.032,1.0303,1.0284,1.0298,1.029,1.0269,1.0298,1.028,1.0283,1.0305,1.0333,1.0337,1.0341,1.0381,1.039,1.0397,0,0,0,0,0,0,1.032,1.0308,1.0294,1.0323,1.0323,1.0313,1.033,1.0313,1.0318,1.0314,1.0292,1.0291,1.0317,1.0313,1.0293,1.034,1.0312,1.0317,1.0342,1.035,1.0357,1.0358,1.0258,0,0,0,0,0,1.0332,1.0344,1.0333,1.0359,1.036,1.0345,1.035,1.0337,1.0336,1.0335,1.0328,1.0328,1.0337,1.0343,1.035,1.0383,1.0381,1.04,1.0406,1.0412,1.0416,1.0434,1.0442,1.0354,1.0354,1.0354,0,0,1.0358,1.0353,1.0361,1.0367,1.0365,1.0379,1.0345,1.036,1.0369,1.0337,1.0358,1.0353,1.0351,1.0379,1.0391,1.0376,1.044,1.0416,1.0421,1.0422,1.0438,1.0447,1.0454,1.0357,1.0356,1.0356,0,0,1.0412,1.0409,1.0431,1.043,1.0428,1.0418,1.0423,1.0416,1.0412,1.0432,1.0409,1.042,1.0435,1.0435,1.0437,1.0492,1.0474,1.0495,1.053,1.0547,1.0554,1.056,1.0581,1.0588,1.0499,1.0499,1.0499,0,1.0444,1.0463,1.0444,1.0461,1.0464,1.0437,1.0459,1.0459,1.0459,1.0463,1.0446,1.0466,1.0463,1.049,1.0504,1.0506,1.0512,1.0496,1.0555,1.0561,1.0566,1.0585,1.0593,1.0501,1.0501,1.0501,1.0501,0,1.0503,1.0516,1.0534,1.0536,1.0541,1.0561,1.0546,1.0553,1.054,1.0532,1.0553,1.0548,1.0555,1.056,1.0547,1.0586,1.0578,1.0559,1.053,1.0577,1.0595,1.0602,1.0505,1.0504,1.0503,1.0503,0,0,1.0582,1.0574,1.0581,1.0582,1.0578,1.0588,1.0606,1.0613,1.0621,1.0622,1.0637,1.0651,1.0634,1.0636,1.0623,1.0638,1.0683,1.0617,1.0617,1.063,1.0727,1.0742,1.0751,1.067,1.0672,1.0673,1.0727,0,1.0634,1.0666,1.065,1.0684,1.0696,1.067,1.0686,1.0686,1.0679,1.0688,1.068,1.0691,1.0667,1.0668,1.0682,1.0674,1.0702,1.067,1.0685,1.0686,1.0687,1.076,1.0775,1.0827,1.0734,1.0735,1.0736,0,1.07,1.0705,1.074,1.0734,1.0739,1.0754,1.0759,1.0769,1.0768,1.0761,1.0764,1.0748,1.0765,1.0737,1.0762,1.074,1.0745,1.0743,1.0744,1.0746,1.0714,1.0764,1.0843,1.0851,1.0746,1.0745,1.0745,0,1.0755,1.0771,1.0794,1.0795,1.0789,1.0801,1.0799,1.0796,1.0801,1.0806,1.0809,1.0815,1.0819,1.0824,1.081,1.079,1.0837,1.0807,1.0833,1.0833,1.0844,1.0844,1.0926,1.0846,1.0846,1.0846,1.0846,0,1.0816,1.0839,1.0819,1.0833,1.0858,1.084,1.0865,1.086,1.0858,1.0871,1.0848,1.0861,1.0841,1.0852,1.084,1.0863,1.0864,1.086,1.0857,1.0863,1.0864,1.0866,1.0863,1.0848,1.0848,1.0847,1.0847,0,1.0883,1.087,1.0894,1.0887,1.0885,1.0904,1.0898,1.0911,1.0902,1.0919,1.0922,1.0909,1.092,1.0906,1.0916,1.0909,1.094,1.0931,1.0941,1.0938,1.0965,1.0964,1.1053,1.1065,1.0976,1.0977,1.0978,0,1.0923,1.094,1.0934,1.0942,1.0941,1.0953,1.0959,1.0941,1.0948,1.0949,1.0962,1.0972,1.0979,1.0998,1.099,1.0997,1.0989,1.102,1.099,1.0995,1.0991,1.099,1.0992,1.1026,1.1027,1.1028,1.1029,0,1.0995,1.0988,1.0997,1.1005,1.1012,1.1017,1.102,1.1027,1.1009,1.1017,1.1029,1.1035,1.1046,1.1056,1.1061,1.1059,1.1041,1.1038,1.1045,1.1051,1.1057,1.1055,1.0958,1.1036,1.1036,1.1035,1.1035,1.1034,1.105,1.1064,1.1063,1.1075,1.1075,1.1079,1.1091,1.1084,1.1094,1.1102,1.1091,1.1106,1.1105,1.111,1.111,1.1122,1.1109,1.1118,1.112,1.1123,1.1128,1.1054,1.1123,1.1122,1.1122,1.1122,1.1122,0,1.1122,1.1121,1.1131,1.1136,1.1145,1.1128,1.113,1.1139,1.1153,1.1153,1.1161,1.1175,1.1185,1.1177,1.1186,1.1197,1.1189,1.1199,1.1199,1.1199,1.1139,1.1133,1.1206,1.1206,1.1206,1.1206,1.1206,1.1206,1.1161,1.1185,1.1178,1.1202,1.12,1.1215,1.1218,1.1221,1.1222,1.1239,1.1247,1.1242,1.124,1.1248,1.1256,1.1254,1.1258,1.1272,1.1267,1.1211,1.1203,1.1195,1.1189,1.1273,1.1273,1.1326,1.1327,1.1327]}]]